User: anonymous   Login
Location: Unspecified
(0.0000°N, 0.0000°E)
Time: 15:22:39
(UTC+00:00)
Language:

UNISAT 3 - Orbit

View from above orbital plane
View from above orbital plane
View from above satellite
View from above satellite

Ground track
Ground track

The orbit data is extracted from the following two-line orbital elements,

1 28373U 04025H   17228.78241807 +.00000063 +00000-0 +30061-4 0  9994
2 28373 098.3386 169.7215 0069727 026.9536 333.5250 14.45412938692666
Epoch (UTC): 16 August 2017 18:46:40
Eccentricity: 0.0069727
inclination: 98.3386°
perigee height: 691 km
apogee height: 790 km
right ascension of ascending node: 169.7215°
argument of perigee: 26.9536°
revolutions per day: 14.45412938
mean anomaly at epoch: 333.5250°
orbit number at epoch: 69266

The dashed part of the orbit path shows where the satellite is in the earth's shadow,  

DLR